| time (UTC) | temp C | wind direction | speed KPH | gust KPH | rain 1hr cm | rain 24hr cm | rain mn cm | humidity % | barometer mb |
| 20260505041552 | 10 | 0 | 0.0 | 6.4 | 0.00 | 0.00 | 0.00 | 90 | 1013.1 |
| 20260505041041 | 10 | 0 | 0.0 | 6.4 | 0.00 | 0.00 | 0.00 | 90 | 1013.1 |
| 20260505040542 | 10 | 0 | 0.0 | 6.4 | 0.00 | 0.00 | 0.00 | 90 | 1013.1 |
| 20260505040053 | 10 | 26 | 1.6 | 8.0 | 0.00 | 0.00 | 0.00 | 90 | 1013.2 |
| 20260505035542 | 10 | 0 | 0.0 | 8.0 | 0.00 | 0.00 | 0.00 | 90 | 1013.0 |
| 20260505035042 | 10 | 341 | 1.6 | 9.7 | 0.00 | 0.00 | 0.00 | 90 | 1013.1 |
| 20260505034546 | 10 | 339 | 3.2 | 9.7 | 0.00 | 0.00 | 0.00 | 90 | 1013.0 |
| 20260505034041 | 10 | 25 | 1.6 | 6.4 | 0.00 | 0.00 | 0.00 | 90 | 1013.1 |
| 20260505033542 | 10 | 328 | 1.6 | 6.4 | 0.00 | 0.00 | 0.00 | 90 | 1013.1 |
| 20260505033048 | 10 | 0 | 1.6 | 9.7 | 0.00 | 0.00 | 0.00 | 90 | 1013.0 |
| 20260505032541 | 10 | 0 | 1.6 | 9.7 | 0.00 | 0.00 | 0.00 | 90 | 1013.0 |
| 20260505032040 | 10 | 349 | 0.0 | 6.4 | 0.00 | 0.00 | 0.00 | 89 | 1013.2 |
| 20260505031548 | 10 | 0 | 1.6 | 6.4 | 0.00 | 0.00 | 0.00 | 89 | 1013.2 |
| 20260505031041 | 10 | 5 | 1.6 | 4.8 | 0.00 | 0.00 | 0.00 | 89 | 1013.1 |
| 20260505030541 | 10 | 351 | 0.0 | 4.8 | 0.00 | 0.00 | 0.00 | 89 | 1013.1 |
| 20260505030109 | 10 | 0 | 1.6 | 6.4 | 0.00 | 0.00 | 0.00 | 89 | 1012.9 |
| 20260505025542 | 10 | 355 | 0.0 | 6.4 | 0.00 | 0.00 | 0.00 | 89 | 1013.0 |
| 20260505025040 | 10 | 346 | 0.0 | 6.4 | 0.00 | 0.00 | 0.00 | 89 | 1013.0 |
| 20260505024558 | 10 | 0 | 1.6 | 6.4 | 0.00 | 0.00 | 0.00 | 89 | 1013.0 |
| 20260505024041 | 10 | 0 | 1.6 | 6.4 | 0.00 | 0.00 | 0.00 | 89 | 1013.0 |
| 20260505023541 | 10 | 352 | 0.0 | 4.8 | 0.00 | 0.00 | 0.00 | 88 | 1013.1 |
| 20260505023049 | 10 | 0 | 0.0 | 0.0 | 0.00 | 0.00 | 0.00 | 88 | 1013.0 |
| 20260505022540 | 10 | 0 | 0.0 | 0.0 | 0.00 | 0.00 | 0.00 | 88 | 1012.9 |
| 20260505022041 | 10 | 0 | 0.0 | 3.2 | 0.00 | 0.00 | 0.00 | 88 | 1013.0 |
| 20260505021546 | 10 | 0 | 0.0 | 6.4 | 0.00 | 0.00 | 0.00 | 88 | 1013.0 |
| 20260505021041 | 10 | 0 | 0.0 | 8.0 | 0.00 | 0.00 | 0.00 | 88 | 1012.9 |
| 20260505020541 | 10 | 17 | 0.0 | 8.0 | 0.00 | 0.00 | 0.00 | 88 | 1012.9 |
| 20260505020050 | 10 | 327 | 0.0 | 4.8 | 0.00 | 0.00 | 0.00 | 88 | 1013.1 |
| 20260505015541 | 10 | 0 | 0.0 | 6.4 | 0.00 | 0.00 | 0.00 | 88 | 1013.2 |
| 20260505015041 | 10 | 0 | 0.0 | 8.0 | 0.00 | 0.00 | 0.00 | 88 | 1013.2 |
| 20260505014603 | 10 | 23 | 1.6 | 8.0 | 0.00 | 0.00 | 0.00 | 88 | 1013.2 |
| 20260505014041 | 10 | 0 | 0.0 | 4.8 | 0.00 | 0.00 | 0.00 | 88 | 1013.2 |
| 20260505013540 | 10 | 331 | 0.0 | 4.8 | 0.00 | 0.00 | 0.00 | 88 | 1013.4 |
| 20260505013053 | 10 | 0 | 0.0 | 4.8 | 0.00 | 0.00 | 0.00 | 88 | 1013.4 |
| 20260505012541 | 10 | 0 | 0.0 | 4.8 | 0.00 | 0.00 | 0.00 | 88 | 1013.5 |
| 20260505012042 | 10 | 0 | 0.0 | 4.8 | 0.00 | 0.00 | 0.00 | 88 | 1013.6 |
| 20260505011556 | 10 | 330 | 0.0 | 4.8 | 0.00 | 0.00 | 0.00 | 88 | 1013.6 |
| 20260505011044 | 10 | 0 | 0.0 | 0.0 | 0.00 | 0.00 | 0.00 | 87 | 1013.6 |
| 20260505010541 | 10 | 0 | 0.0 | 1.6 | 0.00 | 0.00 | 0.00 | 87 | 1013.7 |
| 20260505010058 | 10 | 0 | 0.0 | 1.6 | 0.00 | 0.00 | 0.00 | 87 | 1013.7 |
| 20260505005544 | 10 | 0 | 0.0 | 4.8 | 0.00 | 0.00 | 0.00 | 87 | 1013.7 |
| 20260505005042 | 10 | 0 | 0.0 | 4.8 | 0.00 | 0.00 | 0.00 | 87 | 1013.7 |
| 20260505004553 | 10 | 0 | 0.0 | 4.8 | 0.00 | 0.00 | 0.00 | 87 | 1013.6 |
| 20260505004041 | 10 | 0 | 0.0 | 1.6 | 0.00 | 0.00 | 0.00 | 86 | 1013.7 |
| 20260505003541 | 10 | 0 | 0.0 | 3.2 | 0.00 | 0.00 | 0.00 | 86 | 1013.6 |
| 20260505003057 | 10 | 0 | 0.0 | 4.8 | 0.00 | 0.00 | 0.00 | 86 | 1013.6 |
| 20260505002541 | 11 | 0 | 0.0 | 4.8 | 0.00 | 0.00 | 0.00 | 86 | 1013.6 |
| 20260505002041 | 11 | 23 | 0.0 | 3.2 | 0.00 | 0.00 | 0.00 | 86 | 1013.6 |
| 20260505001545 | 11 | 352 | 0.0 | 4.8 | 0.00 | 0.00 | 0.00 | 86 | 1013.7 |
| 20260505001040 | 11 | 5 | 1.6 | 6.4 | 0.00 | 0.00 | 0.00 | 85 | 1013.8 |
| 20260505000541 | 11 | 355 | 1.6 | 6.4 | 0.00 | 0.00 | 0.00 | 85 | 1013.7 |
| 20260505000057 | 11 | 355 | 1.6 | 6.4 | 0.00 | 0.00 | 0.00 | 85 | 1013.7 |
| 20260504235543 | 11 | 0 | 0.0 | 6.4 | 0.00 | 0.00 | 0.00 | 85 | 1013.7 |
| 20260504235041 | 11 | 355 | 1.6 | 6.4 | 0.00 | 0.00 | 0.00 | 85 | 1013.8 |
| 20260504234550 | 11 | 0 | 0.0 | 8.0 | 0.00 | 0.00 | 0.00 | 85 | 1013.8 |
| 20260504234040 | 11 | 0 | 1.6 | 8.0 | 0.00 | 0.00 | 0.00 | 85 | 1014.0 |
| 20260504233545 | 11 | 9 | 0.0 | 8.0 | 0.00 | 0.00 | 0.00 | 84 | 1014.0 |
| 20260504233051 | 11 | 344 | 0.0 | 8.0 | 0.00 | 0.00 | 0.00 | 84 | 1014.0 |
| 20260504232542 | 11 | 340 | 1.6 | 8.0 | 0.00 | 0.00 | 0.00 | 84 | 1014.1 |
| 20260504232042 | 12 | 355 | 1.6 | 12.9 | 0.00 | 0.00 | 0.00 | 84 | 1014.0 |
| 20260504231548 | 12 | 349 | 3.2 | 12.9 | 0.00 | 0.00 | 0.00 | 84 | 1014.0 |
| 20260504231041 | 12 | 27 | 4.8 | 11.3 | 0.00 | 0.00 | 0.00 | 84 | 1014.0 |
| 20260504230541 | 12 | 18 | 1.6 | 9.7 | 0.00 | 0.00 | 0.00 | 84 | 1014.0 |
| 20260504230050 | 12 | 15 | 3.2 | 11.3 | 0.00 | 0.00 | 0.00 | 84 | 1014.0 |
| 20260504225541 | 12 | 5 | 3.2 | 12.9 | 0.00 | 0.00 | 0.00 | 84 | 1014.1 |
| 20260504225040 | 12 | 319 | 3.2 | 12.9 | 0.00 | 0.00 | 0.00 | 84 | 1014.0 |
| 20260504224548 | 12 | 40 | 4.8 | 12.9 | 0.00 | 0.00 | 0.00 | 84 | 1014.1 |
| 20260504224041 | 12 | 13 | 4.8 | 12.9 | 0.00 | 0.00 | 0.00 | 84 | 1014.1 |
| 20260504223544 | 12 | 332 | 4.8 | 16.1 | 0.00 | 0.00 | 0.00 | 84 | 1014.1 |
| 20260504223107 | 12 | 360 | 1.6 | 16.1 | 0.00 | 0.00 | 0.00 | 83 | 1014.2 |
| 20260504222541 | 12 | 5 | 3.2 | 16.1 | 0.00 | 0.00 | 0.00 | 83 | 1014.1 |
| 20260504222041 | 12 | 45 | 4.8 | 16.1 | 0.00 | 0.00 | 0.00 | 83 | 1014.2 |
| 20260504221553 | 12 | 323 | 4.8 | 12.9 | 0.00 | 0.00 | 0.00 | 83 | 1014.3 |
| 20260504221041 | 12 | 5 | 4.8 | 12.9 | 0.00 | 0.00 | 0.00 | 83 | 1014.2 |
| 20260504220541 | 12 | 38 | 4.8 | 12.9 | 0.00 | 0.00 | 0.00 | 83 | 1014.3 |
| 20260504220050 | 12 | 355 | 3.2 | 14.5 | 0.00 | 0.00 | 0.00 | 83 | 1014.4 |
| 20260504215545 | 12 | 36 | 6.4 | 14.5 | 0.00 | 0.00 | 0.00 | 83 | 1014.5 |
| 20260504215041 | 12 | 338 | 4.8 | 12.9 | 0.00 | 0.00 | 0.00 | 83 | 1014.4 |
| 20260504214544 | 12 | 349 | 6.4 | 14.5 | 0.00 | 0.00 | 0.00 | 83 | 1014.3 |
| 20260504214045 | 12 | 338 | 3.2 | 17.7 | 0.00 | 0.00 | 0.00 | 83 | 1014.3 |
| 20260504213542 | 12 | 9 | 4.8 | 17.7 | 0.00 | 0.00 | 0.00 | 83 | 1014.3 |
| 20260504213056 | 12 | 21 | 6.4 | 14.5 | 0.00 | 0.00 | 0.00 | 83 | 1014.3 |
| 20260504212545 | 12 | 338 | 4.8 | 11.3 | 0.00 | 0.00 | 0.00 | 83 | 1014.3 |
| 20260504212041 | 12 | 21 | 1.6 | 8.0 | 0.00 | 0.00 | 0.00 | 83 | 1014.2 |
| 20260504211634 | 12 | 5 | 3.2 | 8.0 | 0.00 | 0.00 | 0.00 | 82 | 1014.2 |
| 20260504211040 | 13 | 5 | 1.6 | 8.0 | 0.00 | 0.00 | 0.00 | 82 | 1014.2 |
| 20260504210541 | 13 | 35 | 3.2 | 8.0 | 0.00 | 0.00 | 0.00 | 82 | 1014.2 |
| 20260504210053 | 13 | 0 | 1.6 | 12.9 | 0.00 | 0.00 | 0.00 | 82 | 1014.3 |
| 20260504205541 | 13 | 5 | 1.6 | 12.9 | 0.00 | 0.00 | 0.00 | 82 | 1014.3 |
| 20260504205040 | 13 | 345 | 4.8 | 12.9 | 0.00 | 0.00 | 0.00 | 82 | 1014.3 |
| 20260504204550 | 13 | 5 | 3.2 | 12.9 | 0.00 | 0.00 | 0.00 | 82 | 1014.3 |
| 20260504204040 | 13 | 343 | 3.2 | 12.9 | 0.00 | 0.00 | 0.00 | 82 | 1014.2 |
| 20260504203542 | 13 | 23 | 3.2 | 12.9 | 0.00 | 0.00 | 0.00 | 82 | 1014.1 |
| 20260504203049 | 13 | 11 | 3.2 | 12.9 | 0.00 | 0.00 | 0.00 | 82 | 1014.1 |
| 20260504202541 | 13 | 26 | 4.8 | 12.9 | 0.00 | 0.00 | 0.00 | 82 | 1014.1 |
| 20260504202041 | 13 | 348 | 3.2 | 14.5 | 0.00 | 0.00 | 0.00 | 82 | 1014.1 |
| 20260504201550 | 13 | 327 | 4.8 | 14.5 | 0.00 | 0.00 | 0.00 | 82 | 1014.1 |
| 20260504201041 | 13 | 347 | 6.4 | 12.9 | 0.00 | 0.00 | 0.00 | 82 | 1014.1 |
| 20260504200542 | 13 | 341 | 3.2 | 12.9 | 0.00 | 0.00 | 0.00 | 82 | 1014.2 |
| 20260504200053 | 13 | 0 | 4.8 | 12.9 | 0.00 | 0.00 | 0.00 | 82 | 1014.2 |
| 20260504195540 | 13 | 331 | 4.8 | 12.9 | 0.00 | 0.00 | 0.00 | 82 | 1014.1 |
| 20260504195038 | 13 | 336 | 3.2 | 12.9 | 0.00 | 0.00 | 0.00 | 81 | 1014.0 |
| 20260504194554 | 13 | 9 | 1.6 | 12.9 | 0.00 | 0.00 | 0.00 | 81 | 1013.9 |
| 20260504194042 | 13 | 351 | 3.2 | 12.9 | 0.00 | 0.00 | 0.00 | 81 | 1013.9 |
| 20260504193542 | 13 | 0 | 3.2 | 11.3 | 0.00 | 0.00 | 0.00 | 81 | 1013.8 |
| 20260504193051 | 13 | 327 | 1.6 | 8.0 | 0.00 | 0.00 | 0.00 | 81 | 1013.8 |
| 20260504192541 | 13 | 0 | 1.6 | 8.0 | 0.00 | 0.00 | 0.00 | 81 | 1013.8 |
| 20260504192039 | 14 | 326 | 0.0 | 9.7 | 0.00 | 0.00 | 0.00 | 80 | 1013.8 |
| 20260504191606 | 14 | 38 | 1.6 | 9.7 | 0.00 | 0.00 | 0.00 | 80 | 1013.7 |
| 20260504191039 | 14 | 5 | 1.6 | 9.7 | 0.00 | 0.00 | 0.00 | 80 | 1013.9 |
| 20260504190539 | 14 | 355 | 1.6 | 12.9 | 0.00 | 0.00 | 0.00 | 80 | 1013.8 |
| 20260504190106 | 14 | 352 | 4.8 | 12.9 | 0.00 | 0.00 | 0.00 | 80 | 1013.8 |
| 20260504185540 | 14 | 344 | 1.6 | 8.0 | 0.00 | 0.00 | 0.00 | 80 | 1013.7 |
| 20260504185039 | 14 | 17 | 3.2 | 9.7 | 0.00 | 0.00 | 0.00 | 80 | 1013.7 |
| 20260504184553 | 14 | 302 | 1.6 | 9.7 | 0.00 | 0.00 | 0.00 | 80 | 1013.8 |
| 20260504184039 | 14 | 328 | 3.2 | 8.0 | 0.00 | 0.00 | 0.00 | 79 | 1013.7 |
| 20260504183544 | 14 | 333 | 1.6 | 9.7 | 0.00 | 0.00 | 0.00 | 79 | 1013.7 |
| 20260504183049 | 14 | 355 | 3.2 | 9.7 | 0.00 | 0.00 | 0.00 | 79 | 1013.7 |
| 20260504182545 | 15 | 334 | 1.6 | 8.0 | 0.00 | 0.00 | 0.00 | 79 | 1013.7 |
| 20260504182041 | 15 | 9 | 1.6 | 8.0 | 0.00 | 0.00 | 0.00 | 79 | 1013.7 |
| 20260504181555 | 15 | 360 | 1.6 | 8.0 | 0.00 | 0.00 | 0.00 | 79 | 1013.7 |
| 20260504181041 | 15 | 326 | 3.2 | 14.5 | 0.00 | 0.00 | 0.00 | 79 | 1013.5 |
| 20260504180543 | 15 | 360 | 4.8 | 14.5 | 0.00 | 0.00 | 0.00 | 78 | 1013.5 |
| 20260504180055 | 15 | 355 | 3.2 | 11.3 | 0.00 | 0.00 | 0.00 | 78 | 1013.5 |
| 20260504175542 | 15 | 360 | 3.2 | 12.9 | 0.00 | 0.00 | 0.00 | 79 | 1013.5 |
| 20260504175041 | 15 | 38 | 3.2 | 12.9 | 0.00 | 0.00 | 0.00 | 79 | 1013.6 |
| 20260504174553 | 15 | 360 | 3.2 | 9.7 | 0.00 | 0.00 | 0.00 | 79 | 1013.6 |
| 20260504174042 | 15 | 11 | 1.6 | 8.0 | 0.00 | 0.00 | 0.00 | 78 | 1013.6 |
| 20260504173543 | 15 | 360 | 3.2 | 9.7 | 0.00 | 0.00 | 0.00 | 78 | 1013.6 |
| 20260504173054 | 15 | 5 | 3.2 | 11.3 | 0.00 | 0.00 | 0.00 | 78 | 1013.6 |
| 20260504172538 | 15 | 27 | 4.8 | 14.5 | 0.00 | 0.00 | 0.00 | 78 | 1013.6 |
| 20260504172042 | 15 | 36 | 3.2 | 14.5 | 0.00 | 0.00 | 0.00 | 78 | 1013.6 |
| 20260504171551 | 15 | 328 | 4.8 | 11.3 | 0.00 | 0.00 | 0.00 | 77 | 1013.5 |
| 20260504171039 | 15 | 342 | 4.8 | 12.9 | 0.00 | 0.00 | 0.00 | 77 | 1013.6 |
| 20260504170540 | 15 | 38 | 4.8 | 12.9 | 0.00 | 0.00 | 0.00 | 77 | 1013.5 |
| 20260504151045 | 15 | 0 | 3.2 | 19.3 | 0.00 | 0.00 | 0.00 | 79 | 1013.9 |
| 20260504150542 | 15 | 348 | 4.8 | 19.3 | 0.00 | 0.00 | 0.00 | 79 | 1013.9 |
| 20260504141043 | 15 | 36 | 1.6 | 14.5 | 0.00 | 0.00 | 0.00 | 79 | 1013.8 |
| 20260504140543 | 15 | 318 | 6.4 | 14.5 | 0.00 | 0.00 | 0.00 | 78 | 1013.8 |
| 20260504130542 | 15 | 0 | 0.0 | 0.0 | 0.00 | 0.00 | 0.00 | 78 | 1013.7 |
| 20260504110543 | 13 | 341 | 3.2 | 11.3 | 0.00 | 0.00 | 0.00 | 85 | 1014.0 |
| 20260504100541 | 12 | 11 | 4.8 | 12.9 | 0.00 | 0.00 | 0.00 | 87 | 1014.2 |
| 20260504081550 | 11 | 355 | 3.2 | 12.9 | 0.00 | 0.00 | 0.00 | 90 | 1013.6 |
| 20260504081041 | 11 | 322 | 3.2 | 12.9 | 0.00 | 0.00 | 0.00 | 90 | 1013.6 |
| 20260504080542 | 11 | 0 | 1.6 | 12.9 | 0.00 | 0.00 | 0.00 | 90 | 1013.4 |
| 20260504050542 | 12 | 33 | 0.0 | 3.2 | 0.00 | 0.00 | 0.00 | 90 | 1011.7 |
| 20260504045623 | 12 | 0 | 0.0 | 6.4 | 0.00 | 0.00 | 0.00 | 90 | 1011.6 |